Tracking 31027 objects as of 19-Jul-2025
HD Live streaming from Space Station
objects crossing your sky now

COSMOS 1275 DEB

Track COSMOS 1275 DEB now!
10-day predictions


NORAD ID: 42166
Int'l Code: 1981-053SE
Perigee: 807.5 km
Apogee: 1,019.6 km
Inclination: 82.9 °
Period: 103.1 minutes
Semi major axis: 7284 km
RCS: Unknown
Launch date: June 4, 1981
Source: Commonwealth of Independent States (former USSR) (CIS)
Launch site: PLESETSK MISSILE AND SPACE COMPLEX (PKMTR)

Note: This is SATELLITE DEBRIS
Your satellite tracking list
COSMOS 1743
Track 1 satellite(s)




NASA's NSSDC Master Catalog

Two Line Element Set (TLE):
1 42166U 81053SE  25199.18000467  .00002811  00000-0  18544-2 0  9994
2 42166  82.8867 146.9319 0145577  74.8320 286.8895 13.96367543589382
Source of the keplerian elements: AFSPC